FW6766 Weather Reports


Display with metric or nautical units.
time (UTC)temp
F
wind
direction
speed
MPH
gust
MPH
rain 1hr
in
rain 24hr
in
rain mn
in
humidity
%
barometer
mb
20260503014016 53 0.0 0.0 0.00 0.00 0.00 52 1016.2
20260503013016 54 0.0 0.0 0.00 0.00 0.00 50 1016.2
20260503012016 55 0.0 1.0 0.00 0.00 0.00 49 1016.1
20260503011017 55 0.0 0.0 0.00 0.00 0.00 47 1016.0
20260503010016 56 0.0 0.0 0.00 0.00 0.00 46 1015.8
20260503005016 57 0.0 2.0 0.00 0.00 0.00 46 1015.7
20260503004016 57 0.0 1.0 0.00 0.00 0.00 45 1015.5
20260503003016 58 0.0 2.0 0.00 0.00 0.00 44 1015.5
20260503002016 59 0.0 1.0 0.00 0.00 0.00 42 1015.5
20260503001016 60 0.0 2.0 0.00 0.00 0.00 40 1015.2
20260503000057 60 23 1.0 4.0 0.00 0.00 0.00 37 1014.9
20260502235016 60 203 1.0 5.0 0.00 0.00 0.00 39 1014.8
20260502234016 61 180 1.0 4.0 0.00 0.00 0.00 39 1014.9
20260502233016 61 23 2.0 8.0 0.00 0.00 0.00 37 1014.7
20260502232056 62 0 2.0 8.0 0.00 0.00 0.00 36 1014.7
20260502231016 62 23 2.0 8.0 0.00 0.00 0.00 36 1014.5
20260502230016 63 23 1.0 5.0 0.00 0.00 0.00 37 1014.5
20260502225017 63 158 2.0 10.0 0.00 0.00 0.00 34 1014.6
20260502224016 64 0 2.0 6.0 0.00 0.00 0.00 34 1014.6
20260502223015 65 0 2.0 8.0 0.00 0.00 0.00 35 1014.7
20260502222016 65 0 3.0 13.0 0.00 0.00 0.00 32 1014.5
20260502221016 66 0 3.0 9.0 0.00 0.00 0.00 31 1014.4
20260502220015 66 0 3.0 14.0 0.00 0.00 0.00 35 1014.3
20260502215016 66 0 3.0 10.0 0.00 0.00 0.00 33 1014.1
20260502214015 66 0 3.0 10.0 0.00 0.00 0.00 35 1013.9
20260502213015 67 0 5.0 18.0 0.00 0.00 0.00 33 1013.9
20260502212036 68 0 4.0 11.0 0.00 0.00 0.00 33 1013.8
20260502211015 69 0 2.0 6.0 0.00 0.00 0.00 35 1013.5
20260502210015 69 0 4.0 10.0 0.00 0.00 0.00 35 1013.4
20260502205015 69 0 3.0 9.0 0.00 0.00 0.00 33 1013.3
20260502204015 69 0 4.0 10.0 0.00 0.00 0.00 32 1013.3
20260502203036 69 0 4.0 10.0 0.00 0.00 0.00 36 1013.4
20260502202015 69 0 2.0 5.0 0.00 0.00 0.00 37 1013.4
20260502201017 70 0 2.0 5.0 0.00 0.00 0.00 41 1013.3
20260502200017 70 0 3.0 9.0 0.00 0.00 0.00 38 1013.3
20260502195037 70 0 4.0 9.0 0.00 0.00 0.00 42 1013.4
20260502194017 70 0 3.0 9.0 0.00 0.00 0.00 39 1013.4
20260502193018 70 0 4.0 10.0 0.00 0.00 0.00 42 1013.4
20260502192037 70 0 2.0 10.0 0.00 0.00 0.00 41 1013.5
20260502191037 71 0 3.0 9.0 0.00 0.00 0.00 43 1013.6
20260502190017 71 0 2.0 4.0 0.00 0.00 0.00 44 1013.6
20260502185017 70 0 3.0 10.0 0.00 0.00 0.00 42 1013.4
20260502184017 70 0 3.0 10.0 0.00 0.00 0.00 42 1013.4
20260502183018 69 0 2.0 8.0 0.00 0.00 0.00 46 1013.4
20260502182017 69 0 2.0 6.0 0.00 0.00 0.00 49 1013.5
20260502181017 69 0 1.0 4.0 0.00 0.00 0.00 47 1013.6
20260502164017 68 0 2.0 6.0 0.00 0.00 0.00 55 1014.4
20260502163037 67 0.0 2.0 0.00 0.00 0.00 56 1014.5
20260502162016 66 0.0 3.0 0.00 0.00 0.00 56 1014.6
20260502161018 66 0 2.0 5.0 0.00 0.00 0.00 56 1014.6
20260502152016 61 0 1.0 4.0 0.00 0.00 0.00 65 1014.6
20260502151017 59 0 1.0 5.0 0.00 0.00 0.00 67 1014.5
20260502123016 53 0.0 0.0 0.00 0.00 0.00 79 1013.2
20260502122016 53 0.0 0.0 0.00 0.00 0.00 78 1013.5
20260502121016 53 0.0 0.0 0.00 0.00 0.00 78 1013.0
20260502115016 53 0.0 1.0 0.00 0.00 0.00 78 1012.5
20260502114016 53 0.0 0.0 0.00 0.00 0.00 77 1013.0
20260502113016 53 0.0 0.0 0.00 0.00 0.00 80 1013.2
20260502112016 53 0.0 1.0 0.00 0.00 0.00 81 1013.6
20260502111016 53 0.0 3.0 0.00 0.00 0.00 82 1013.6
20260502110016 53 0.0 1.0 0.00 0.00 0.00 81 1013.2
20260502105016 53 0.0 0.0 0.00 0.00 0.00 81 1013.0
20260502104016 53 0.0 0.0 0.00 0.00 0.00 79 1012.9
20260502103037 53 0.0 2.0 0.00 0.00 0.00 79 1012.7
20260502102016 53 0.0 0.0 0.00 0.00 0.00 79 1012.6
20260502101016 53 0.0 1.0 0.00 0.00 0.00 80 1012.1
20260502091015 54 0.0 1.0 0.00 0.00 0.00 83 1012.6
20260502071018 54 0.0 0.0 0.00 0.00 0.00 85 1013.3
20260502070017 54 0.0 0.0 0.00 0.00 0.00 86 1013.4
20260502065017 54 0.0 1.0 0.00 0.00 0.00 86 1013.6
20260502064017 54 0.0 0.0 0.00 0.00 0.00 86 1013.8
20260502063017 55 0.0 0.0 0.00 0.00 0.00 86 1013.6
20260502062017 55 0.0 0.0 0.00 0.00 0.00 85 1013.7
20260502061017 55 0.0 0.0 0.00 0.00 0.00 86 1013.9
20260502060038 55 0.0 0.0 0.00 0.00 0.00 85 1013.9
20260502055017 55 0.0 0.0 0.00 0.00 0.00 85 1013.8
20260502054017 55 0.0 0.0 0.00 0.00 0.00 84 1013.8
20260502053017 56 0.0 2.0 0.00 0.00 0.00 82 1013.7
20260502052017 56 0.0 0.0 0.00 0.00 0.00 81 1014.0
20260502051017 56 0.0 0.0 0.00 0.00 0.00 80 1014.1
20260502050017 57 0.0 0.0 0.00 0.00 0.00 78 1014.1
20260502045038 57 0.0 0.0 0.00 0.00 0.00 77 1014.0
20260502044036 57 0.0 0.0 0.00 0.00 0.00 76 1014.1
20260502043017 57 23 1.0 3.0 0.00 0.00 0.00 75 1014.1
20260502042017 57 0.0 4.0 0.00 0.00 0.00 77 1014.3
20260502041036 57 0.0 0.0 0.00 0.00 0.00 77 1014.5
20260502040017 57 0.0 0.0 0.00 0.00 0.00 77 1014.4
20260502035017 57 0.0 0.0 0.00 0.00 0.00 80 1014.6
20260502034017 57 0.0 0.0 0.00 0.00 0.00 78 1014.7
20260502033016 57 0.0 0.0 0.00 0.00 0.00 79 1014.8
20260502032016 57 0.0 0.0 0.00 0.00 0.00 79 1014.7
20260502031017 58 0.0 0.0 0.00 0.00 0.00 78 1014.8
20260502030016 58 0.0 0.0 0.00 0.00 0.00 78 1015.0
20260502025016 58 0.0 0.0 0.00 0.00 0.00 79 1014.9
20260502024017 58 0.0 0.0 0.00 0.00 0.00 78 1014.8
20260502023016 58 0.0 0.0 0.00 0.00 0.00 78 1014.9
20260502022016 58 0.0 0.0 0.00 0.00 0.00 78 1014.8
20260502021017 58 0.0 0.0 0.00 0.00 0.00 77 1014.7
20260502020016 58 0.0 0.0 0.00 0.00 0.00 78 1014.6
20260502015016 58 0.0 0.0 0.00 0.00 0.00 78 1014.4